Temperature
24 23 22 22 21 20 20 20 20 19 19 19 18 18 18 18 18 18 18 18 18 18 18 18 18 18 18 17 17 17 17 18 18 18 18 18 18 18 18 18 18 18 18
25 24 22 22 21 21 21 20 20 20 20 19 19 19 19 19 19 19 18 18 18 18 18 18 18 18 18 18 18 18 18 18 18 18 19 19 19 18 18 18 18 18 18
26 24 23 22 22 21 21 21 21 20 20 20 19 19 19 19 19 19 19 19 18 18 18 18 18 18 18 18 18 18 17 18 18 18 18 19 20 19 19 18 18 18 18
26 25 23 23 22 22 22 21 21 21 21 20 19 19 19 19 19 19 19 19 19 18 18 18 18 18 18 18 18 18 18 18 18 18 18 18 18 19 19 19 18 18 18
26 25 24 23 23 22 22 22 22 21 21 21 20 20 19 19 19 19 19 19 18 18 18 18 18 18 18 18 18 18 18 18 18 18 18 18 18 18 18 19 18 18 18
27 25 24 24 23 22 22 22 22 22 21 21 21 20 20 19 19 19 19 19 19 18 18 18 18 18 18 18 18 18 18 18 18 18 18 18 18 18 18 18 18 18 18
27 26 25 24 23 22 22 22 22 22 22 21 21 21 20 20 20 19 19 19 19 19 19 18 18 18 18 18 18 18 18 18 18 18 18 18 18 18 18 18 18 18 18
27 26 25 24 23 23 22 22 22 22 22 21 21 21 21 20 19 19 19 19 19 19 19 19 19 18 18 18 18 18 18 18 18 18 18 17 17 17 17 17 18 18 18
27 26 25 24 23 23 22 22 22 22 22 21 21 21 21 20 19 19 19 19 19 19 19 19 18 18 18 18 18 18 18 18 18 17 17 17 17 17 17 17 17 17 18
26 26 25 25 24 23 22 22 22 22 22 21 21 20 21 20 20 19 19 19 19 19 19 18 18 18 18 18 18 18 18 18 18 17 17 17 17 17 17 17 17 17 17
26 26 25 24 24 23 22 22 21 21 21 21 20 20 20 20 20 19 19 19 19 19 19 18 18 18 18 18 18 18 17 17 17 17 17 17 17 17 17 17 17 17 17
25 25 24 24 23 23 22 22 21 20 20 20 20 20 20 20 19 19 19 19 19 18 18 18 18 18 18 18 18 18 17 17 17 17 17 17 17 17 17 17 17 17 17
24 23 23 23 22 22 21 21 21 20 20 20 20 20 19 19 19 19 19 19 19 19 18 18 18 18 18 17 17 17 17 17 17 17 17 17 17 17 17 17 17 16 16
22 22 22 21 21 21 20 20 20 20 19 19 19 19 19 19 19 19 19 19 19 18 18 18 18 18 18 17 17 17 17 17 17 17 17 17 17 17 17 17 17 16 16
21 21 21 20 20 19 19 19 19 19 19 19 19 19 19 19 18 18 18 18 18 18 18 18 18 17 17 17 17 17 17 17 17 17 17 16 16 17 17 16 16 16 16
21 20 20 19 19 19 19 19 19 18 18 19 19 19 18 18 18 18 18 18 18 18 18 18 17 17 17 17 17 17 17 16 16 16 16 16 16 17 17 17 16 16 16
20 20 19 19 19 19 19 19 18 18 18 18 18 18 18 18 18 17 18 18 18 18 18 18 18 17 17 17 17 17 17 16 16 16 16 16 16 16 16 16 16 16 16
19 19 19 19 18 18 18 18 18 18 18 18 18 18 18 17 17 17 17 17 17 17 17 17 17 17 17 17 17 17 16 16 16 16 16 16 16 16 16 16 16 16 16
19 18 18 18 18 18 18 17 17 17 18 18 18 17 17 17 17 17 17 17 17 17 17 17 17 16 17 17 17 16 16 16 16 16 16 15 15 16 16 16 15 15 15
17 17 17 17 17 17 17 17 17 17 17 17 17 17 17 17 17 16 16 16 16 16 16 16 16 16 16 16 16 16 16 15 15 15 15 15 15 15 15 15 15 15 15
17 17 17 17 17 17 17 16 16 16 17 16 16 16 16 16 16 16 16 16 16 16 15 15 16 15 16 16 16 15 15 15 15 15 15 15 15 15 15 14 14 14 14
16 16 16 16 16 16 16 16 16 16 16 16 16 16 16 16 16 15 15 15 15 15 15 15 15 15 15 15 15 15 15 15 14 14 14 14 14 14 14 14 14 14 14
16 16 16 16 16 16 16 16 16 16 16 15 15 15 15 15 15 15 15 15 15 15 15 15 15 15 15 15 15 15 14 14 14 14 14 14 14 14 14 13 14 13 13
16 16 16 15 15 16 16 15 15 15 15 15 15 15 15 15 15 15 15 15 15 15 15 15 15 15 15 15 14 14 14 14 14 13 13 13 13 13 13 13 13 12 12
15 15 15 15 15 15 15 15 15 15 15 14 14 14 14 15 14 14 14 14 14 15 14 14 14 14 14 14 14 14 13 13 13 13 13 13 12 12 12 12 12 12 12
14 14 14 14 14 14 14 15 14 14 14 14 14 14 14 14 14 14 14 14 14 14 14 14 13 13 13 13 13 13 13 13 12 12 12 12 12 12 12 12 12 11 11
Wind_Speed
15 15 15 15 14 13 13 13 12 11 9 8 8 7 7 6 6 5 6 7 6 6 5 4 4 5 4 4 4 4 4 5 3 4 4 4 5 5 5 5 4 5 5
15 16 16 16 16 15 14 14 13 13 12 9 7 6 6 6 6 5 5 7 7 6 6 5 5 5 4 5 5 5 4 4 3 3 3 3 4 4 3 3 4 4 4
17 17 17 17 17 16 16 14 14 13 13 11 9 7 6 6 6 6 6 7 7 7 6 6 5 5 6 6 6 6 6 5 4 3 3 3 1 1 3 3 3 3 3
16 17 17 18 17 17 15 14 13 13 13 12 11 11 8 8 7 6 6 6 7 7 7 6 6 6 6 5 6 6 5 6 5 4 4 4 3 3 2 3 3 3 3
16 17 17 18 17 16 15 14 14 13 13 12 11 11 10 8 7 6 6 6 6 6 7 6 6 6 6 6 6 5 6 5 5 4 4 4 4 6 5 3 2 2 2
14 15 15 15 16 16 15 15 15 14 13 13 13 12 11 10 8 7 7 6 5 6 7 7 6 6 6 6 6 6 6 6 6 5 5 5 4 4 5 5 4 3 2
13 15 16 16 16 17 16 15 15 14 14 14 13 13 12 11 10 9 8 7 6 6 6 6 6 6 6 6 6 6 6 6 6 6 5 5 5 5 5 5 5 4 3
12 13 15 16 16 17 17 16 15 14 14 14 13 11 11 9 9 9 8 7 6 6 5 6 7 7 7 7 6 6 6 6 6 7 6 5 5 5 5 5 5 5 4
10 12 13 14 15 16 17 16 15 14 14 13 12 11 11 10 9 8 9 7 6 6 6 7 7 7 7 7 7 6 6 6 6 7 7 6 5 5 5 5 6 6 5
8 10 11 12 13 14 14 14 14 13 12 12 11 10 10 10 9 8 8 7 7 6 7 7 7 7 7 7 7 7 7 7 6 6 6 6 6 5 5 5 6 6 6
5 7 8 9 10 11 12 13 13 12 11 11 11 10 10 9 9 8 8 8 7 7 7 7 7 7 7 7 7 8 7 8 7 7 7 7 7 5 5 5 6 6 6
3 5 7 7 8 9 10 11 11 11 11 10 10 10 9 8 9 8 8 8 8 8 8 7 7 7 8 7 8 9 8 8 8 8 8 8 7 7 6 5 6 6 6
2 3 5 6 7 8 9 9 10 10 9 9 9 9 9 8 8 8 8 8 8 7 7 7 7 7 7 8 8 8 8 8 8 8 8 8 8 8 6 7 6 6 6
2 3 4 5 5 6 7 7 7 7 8 8 8 8 8 8 8 7 7 7 7 7 7 7 7 7 7 8 8 8 8 8 8 8 8 9 9 8 8 7 7 6 6
2 3 3 4 5 6 7 7 7 7 7 7 7 7 7 7 7 6 6 6 7 7 7 7 7 7 7 7 7 7 8 8 8 8 8 8 8 7 7 7 7 7 6
2 2 3 4 5 6 6 7 7 7 7 7 7 6 6 6 6 6 6 6 7 7 7 7 7 7 6 3 5 7 8 8 8 8 8 8 8 7 8 7 6 7 8
2 2 3 3 4 5 6 6 7 7 7 7 7 7 7 7 6 6 6 6 6 6 6 6 6 7 6 5 7 8 9 9 8 8 8 7 7 7 8 7 8 8 8
2 1 2 3 3 4 5 5 6 7 7 7 6 6 6 6 6 5 5 5 5 5 5 6 6 6 6 6 8 8 10 10 9 9 8 8 7 6 6 7 8 8 8
1 1 1 2 2 3 5 5 5 5 6 6 6 6 6 6 6 5 5 4 4 5 5 6 6 7 6 6 7 8 8 8 9 8 8 8 8 6 6 7 8 8 7
1 1 1 1 2 3 4 5 5 5 5 5 6 5 6 6 5 5 5 5 5 5 6 5 6 6 6 4 6 7 7 7 7 7 7 7 7 6 7 8 8 8 7
2 2 1 1 1 3 4 4 5 5 5 5 5 5 5 6 6 5 5 5 5 5 6 5 5 6 6 5 6 7 6 7 7 6 6 5 7 8 9 9 8 8 7
2 2 1 1 1 2 4 4 4 4 3 4 4 4 4 5 4 5 5 5 5 6 7 6 6 6 6 5 5 6 7 7 7 7 6 4 6 8 9 8 7 6 7
1 1 1 1 1 2 3 4 3 3 3 3 4 3 4 4 4 5 6 6 6 6 6 6 7 6 5 5 8 8 8 8 7 6 4 3 5 7 8 8 8 8 7
1 1 2 2 3 3 3 3 3 3 3 4 3 4 4 4 4 4 5 5 6 6 6 7 7 6 5 5 5 5 5 7 6 5 4 6 8 7 6 6 7 7 6
2 2 2 3 4 4 3 3 3 3 3 4 4 4 4 4 4 5 4 6 5 5 6 6 6 7 7 4 3 4 5 5 3 3 4 4 4 5 5 5 5 5 6
2 2 3 4 4 4 4 4 4 4 5 4 4 4 5 4 5 5 5 3 5 4 5 6 7 6 5 4 4 5 5 6 5 4 5 6 6 6 6 6 5 5 5
Wind_Direction
195 192 194 195 193 193 194 195 198 192 196 199 201 202 206 211 212 217 212 217 224 220 226 238 216 228 225 231 235 234 226 236 240 253 251 238 230 234 236 241 251 242 242
195 192 195 196 197 195 196 196 198 197 199 199 203 209 215 216 216 219 211 221 222 224 221 227 232 227 229 229 232 235 248 243 226 256 264 241 203 207 218 225 228 244 244
199 194 196 199 198 197 197 198 198 198 201 199 202 201 207 221 214 214 213 219 222 224 233 231 238 236 237 230 231 234 240 248 234 236 260 274 259 230 186 205 214 221 239
203 199 197 198 199 198 194 196 195 198 199 200 208 207 210 216 218 217 216 215 220 227 227 231 232 237 243 238 237 228 243 247 246 225 236 263 298 280 239 198 184 198 223
202 201 200 198 199 196 192 192 193 197 197 200 205 211 217 220 220 216 215 221 215 221 226 226 227 232 239 241 246 246 246 244 250 248 238 236 238 248 262 253 234 218 218
204 200 200 196 195 193 192 192 192 196 196 199 204 211 218 221 222 219 218 219 217 216 219 222 227 234 240 237 239 240 237 247 253 256 249 242 244 242 248 257 249 248 246
205 199 196 194 193 193 192 193 192 196 198 200 205 209 214 217 221 226 225 227 223 218 215 220 224 234 237 240 240 235 244 238 240 242 246 248 250 258 259 265 266 263 254
205 201 197 196 195 195 193 194 194 197 197 200 204 207 210 216 222 225 230 224 227 225 216 217 226 233 237 238 233 241 237 235 237 242 245 247 246 249 252 257 263 262 252
207 205 200 198 197 197 196 196 195 196 197 199 201 206 209 218 222 220 225 228 224 221 213 220 228 233 236 240 237 238 239 237 240 242 235 241 240 242 246 247 251 260 263
211 207 204 200 199 198 195 195 194 195 196 197 199 202 205 211 218 221 221 225 222 221 220 221 228 233 235 235 236 239 235 235 238 241 244 242 244 238 239 240 242 249 258
215 203 201 199 195 192 189 190 190 191 194 197 197 201 202 204 208 213 216 218 220 217 222 225 227 231 235 236 236 241 237 236 237 237 232 233 243 241 238 235 236 237 241
218 197 191 188 182 181 183 182 185 187 190 192 193 197 198 202 208 211 214 214 215 217 221 227 227 232 234 234 235 239 239 237 237 236 234 234 228 230 243 241 238 236 235
166 174 176 179 177 175 176 174 179 181 181 185 187 190 195 201 211 217 216 214 215 218 222 228 228 233 236 235 236 239 241 240 240 239 236 233 229 228 232 238 239 234 227
130 152 162 166 165 167 168 168 172 173 174 179 185 188 196 201 209 213 215 217 218 218 222 228 230 233 237 239 239 239 242 242 242 240 238 235 232 230 231 231 234 235 232
137 148 151 153 155 159 163 163 165 167 170 171 177 183 189 196 203 208 213 217 224 223 222 226 228 233 236 236 236 240 239 241 241 240 238 237 234 238 239 241 232 230 232
156 156 151 153 156 160 164 165 166 172 171 171 175 175 181 187 194 205 211 216 224 229 225 226 230 235 241 225 231 243 244 242 242 243 241 237 228 227 227 243 246 240 234
156 159 155 164 171 169 169 168 170 174 175 177 179 179 183 188 194 205 206 213 218 225 225 226 231 239 241 224 226 238 245 245 243 242 240 242 234 220 229 225 227 235 243
164 158 173 181 185 177 174 178 175 176 178 180 182 180 188 192 193 199 206 212 216 223 229 235 237 242 242 223 225 229 238 244 243 239 236 237 238 225 223 225 226 231 233
190 191 203 210 193 187 182 182 180 182 185 185 186 188 191 195 197 202 210 217 222 227 232 233 237 242 242 226 224 229 239 238 238 236 235 235 232 212 211 222 225 228 232
217 222 236 239 203 185 180 190 191 193 198 196 194 194 193 197 201 207 214 220 226 231 237 238 239 243 248 223 217 226 239 238 238 236 233 226 231 210 202 222 224 226 229
213 203 219 246 213 180 176 190 197 208 208 200 193 195 198 199 206 214 219 221 231 239 246 246 243 240 243 225 210 222 240 245 243 239 236 227 199 207 210 225 228 228 228
203 191 220 270 268 209 189 198 212 223 217 210 207 199 212 220 209 213 226 228 232 236 239 239 248 245 234 225 209 210 232 258 250 248 247 233 185 207 215 223 230 222 222
204 231 273 305 292 244 219 223 232 234 223 214 219 214 216 231 229 227 229 227 226 239 246 247 251 252 244 219 191 204 218 230 243 256 273 262 211 213 218 221 220 218 221
249 282 295 303 297 276 252 251 253 247 231 222 225 224 226 231 233 238 237 238 238 242 248 253 257 260 255 248 226 220 218 216 232 250 237 212 214 222 225 214 214 224 225
281 279 286 295 298 294 279 269 265 256 242 237 242 242 244 243 243 243 250 249 256 253 255 264 270 269 266 271 284 248 246 249 247 257 253 247 230 226 225 222 217 218 218
293 283 290 297 298 292 274 273 273 258 250 247 248 255 257 252 250 251 258 238 235 210 218 237 256 273 273 270 264 246 238 234 229 234 239 238 235 231 229 226 218 217 219
Height
1514 1517 1520 1523 1525 1527 1529 1532 1534 1536 1538 1540 1541 1543 1545 1546 1547 1548 1548 1548 1549 1550 1550 1551 1551 1551 1552 1552 1553 1553 1554 1554 1554 1554 1554 1554 1553 1553 1553 1553 1553 1554 1554
1510 1513 1516 1519 1522 1524 1527 1529 1531 1534 1535 1537 1539 1541 1543 1544 1545 1546 1546 1547 1547 1548 1549 1549 1549 1550 1550 1550 1551 1551 1552 1552 1552 1553 1553 1552 1553 1551 1551 1551 1551 1551 1551
1505 1509 1512 1515 1518 1521 1523 1526 1528 1531 1533 1535 1537 1539 1540 1541 1543 1543 1544 1544 1545 1546 1546 1547 1547 1548 1548 1549 1549 1549 1550 1550 1551 1550 1551 1551 1549 1550 1550 1549 1549 1548 1549
1500 1504 1507 1510 1513 1517 1520 1522 1525 1527 1530 1532 1534 1536 1537 1539 1540 1541 1542 1542 1542 1543 1544 1544 1545 1545 1546 1546 1547 1548 1548 1548 1549 1549 1548 1549 1548 1549 1548 1548 1547 1546 1546
1495 1498 1502 1505 1509 1513 1516 1518 1521 1523 1526 1529 1531 1533 1535 1536 1538 1538 1539 1539 1540 1541 1541 1542 1542 1543 1543 1544 1544 1545 1545 1546 1546 1547 1546 1546 1546 1546 1547 1546 1546 1545 1545
1490 1494 1498 1502 1505 1508 1512 1514 1516 1519 1522 1525 1527 1529 1531 1533 1534 1535 1536 1537 1538 1538 1539 1539 1540 1540 1541 1541 1541 1542 1542 1543 1543 1543 1544 1544 1544 1544 1544 1544 1543 1543 1543
1485 1489 1493 1496 1500 1503 1507 1510 1512 1515 1518 1521 1523 1525 1528 1529 1531 1532 1533 1534 1535 1536 1536 1537 1537 1537 1538 1538 1538 1539 1539 1540 1540 1540 1541 1541 1541 1541 1541 1541 1541 1540 1540
1481 1484 1488 1491 1494 1498 1502 1505 1508 1511 1514 1517 1519 1522 1524 1526 1527 1528 1530 1530 1531 1532 1533 1533 1534 1534 1535 1535 1535 1536 1536 1537 1537 1537 1537 1538 1538 1538 1538 1538 1539 1538 1538
1477 1480 1484 1487 1490 1493 1497 1500 1503 1506 1509 1512 1515 1517 1519 1521 1523 1524 1525 1526 1527 1528 1528 1529 1530 1531 1531 1532 1532 1533 1533 1533 1534 1534 1534 1534 1535 1535 1535 1535 1535 1536 1535
1474 1477 1480 1483 1486 1489 1493 1496 1499 1502 1505 1508 1511 1513 1515 1516 1518 1520 1521 1522 1523 1524 1524 1526 1527 1528 1528 1528 1529 1529 1530 1530 1530 1530 1530 1531 1532 1532 1532 1532 1532 1532 1533
1471 1473 1477 1480 1483 1486 1489 1492 1495 1498 1501 1504 1506 1508 1510 1512 1514 1515 1517 1518 1519 1520 1522 1523 1523 1524 1525 1525 1526 1526 1526 1527 1527 1527 1527 1527 1528 1528 1529 1529 1529 1529 1529
1470 1472 1475 1477 1480 1483 1485 1488 1491 1494 1497 1499 1501 1504 1506 1508 1511 1512 1513 1514 1515 1516 1518 1520 1520 1521 1522 1522 1522 1522 1523 1523 1523 1523 1523 1523 1524 1524 1525 1525 1525 1525 1525
1468 1470 1473 1475 1477 1480 1482 1485 1487 1490 1493 1495 1497 1499 1501 1504 1506 1508 1509 1511 1512 1513 1514 1516 1516 1517 1518 1518 1519 1519 1519 1519 1519 1519 1519 1519 1520 1520 1521 1521 1522 1522 1522
1468 1470 1472 1473 1475 1477 1479 1482 1484 1487 1489 1491 1493 1495 1497 1500 1503 1504 1505 1507 1508 1509 1510 1511 1512 1512 1513 1514 1515 1515 1515 1515 1515 1515 1515 1515 1516 1516 1517 1517 1517 1518 1518
1468 1470 1470 1472 1473 1475 1477 1479 1481 1484 1486 1488 1490 1492 1494 1497 1499 1500 1501 1502 1504 1505 1506 1507 1507 1508 1509 1510 1510 1511 1511 1511 1511 1510 1511 1511 1512 1512 1513 1513 1513 1514 1514
1467 1469 1470 1471 1472 1473 1475 1477 1479 1481 1482 1485 1487 1488 1491 1493 1495 1497 1498 1499 1500 1501 1502 1503 1503 1504 1505 1506 1506 1506 1506 1506 1506 1506 1506 1507 1507 1507 1508 1508 1509 1509 1510
1467 1468 1468 1470 1471 1472 1473 1474 1476 1478 1479 1481 1483 1485 1487 1489 1491 1493 1494 1495 1496 1497 1498 1498 1499 1499 1500 1501 1501 1501 1502 1502 1502 1502 1502 1502 1503 1503 1503 1503 1504 1504 1504
1466 1466 1467 1468 1469 1470 1471 1473 1474 1476 1477 1479 1480 1482 1484 1485 1487 1489 1490 1492 1493 1493 1493 1494 1495 1495 1495 1496 1496 1497 1497 1497 1497 1497 1497 1497 1498 1498 1498 1498 1499 1499 1499
1465 1465 1466 1466 1467 1468 1469 1470 1471 1473 1475 1476 1477 1479 1481 1482 1484 1485 1486 1488 1489 1489 1490 1490 1490 1490 1490 1491 1492 1492 1492 1492 1492 1492 1492 1492 1493 1493 1493 1493 1493 1494 1494
1463 1463 1464 1464 1465 1465 1466 1467 1469 1470 1472 1473 1475 1476 1477 1479 1480 1482 1483 1484 1485 1485 1486 1486 1486 1486 1486 1486 1486 1486 1487 1487 1487 1487 1487 1487 1487 1488 1488 1488 1488 1488 1488
1460 1461 1462 1462 1462 1463 1464 1466 1467 1468 1469 1471 1472 1473 1474 1475 1477 1479 1479 1480 1481 1482 1482 1482 1482 1482 1482 1481 1481 1482 1482 1482 1482 1482 1482 1482 1482 1482 1482 1483 1483 1483 1484
1457 1459 1460 1460 1460 1461 1462 1463 1464 1465 1466 1467 1468 1469 1471 1472 1474 1475 1475 1476 1476 1477 1478 1478 1477 1478 1477 1477 1476 1477 1477 1477 1477 1477 1477 1477 1476 1476 1477 1477 1477 1478 1479
1457 1457 1458 1458 1459 1460 1460 1461 1462 1462 1463 1464 1464 1465 1467 1468 1470 1471 1472 1472 1472 1473 1474 1474 1474 1474 1473 1472 1472 1472 1472 1472 1472 1472 1471 1471 1471 1471 1471 1471 1472 1473 1474
1457 1456 1457 1457 1458 1458 1458 1459 1459 1460 1460 1461 1461 1462 1463 1464 1466 1467 1467 1468 1468 1469 1469 1469 1469 1469 1468 1468 1467 1467 1467 1467 1467 1467 1466 1466 1466 1466 1466 1466 1467 1468 1468
1456 1456 1456 1456 1456 1456 1456 1457 1457 1456 1457 1457 1458 1459 1460 1461 1461 1462 1462 1463 1463 1463 1463 1464 1464 1464 1464 1464 1463 1462 1462 1463 1462 1461 1461 1461 1462 1461 1461 1462 1462 1462 1464
1454 1454 1454 1454 1454 1453 1453 1454 1454 1454 1454 1454 1454 1456 1457 1457 1458 1458 1458 1457 1457 1457 1457 1457 1458 1457 1458 1457 1457 1457 1456 1456 1457 1456 1455 1456 1456 1456 1456 1457 1457 1458 1459